Location: Altmatt
(47.1333°N, 8.7000°E)
Time: 08:31:45
(UTC+00:00)

GP-B - Pass Details

Date: 13 July 2020
Orbit: 631 x 635 km, 89.8° (Epoch: 04 August)

Event Time Altitude Azimuth Distance (km) Brightness Sun altitude
Rises 21:42:14 0° 8° (N) 2,938 7.5 -17.0°
Reaches altitude 10° 21:44:37 10° 18° (NNE) 2,025 6.4 -17.1°
Maximum altitude 21:48:44 36° 85° (E) 1,005 3.9 -17.4°
Enters shadow 21:50:03 30° 121° (ESE) 1,149 4.0 -17.5°
